IRIDIUM 109

Last updated on Fri Sep 11 2026 00:03:05 GMT+0000 (Coordinated Universal Time)

1 41919U 17003C 26253.48580970 .00000027 00000+0 26838-5 0 9994 2 41919 86.3934 52.8246 0002188 90.7972 269.3475 14.34218194505428
UTC large
Height (km)
Speed (km/s)
/
Latitude / Longitude
Inclination (degrees)
Orbital Period (minutes)
Azimuth
Elevation
Range (km)
Doppler Factor

Next 0 passes for location: London (51.5072 / 0.1276)

No passes found over London.
IRIDIUM 109